Location: Bakhuizen
(52.8696°N, 5.4575°E)
Time: 08:32:26
(UTC+00:00)

Cosmos 158 Rocket - Pass Details

Date: 11 May 2021
Orbit: 699 x 793 km, 74.0° (Epoch: 20 June)

Event Time Altitude Azimuth Distance (km) Brightness Sun altitude
Rises 21:36:37 0° 330° (NNW) 3,096 9.1 -14.6°
Reaches altitude 10° 21:39:00 10° 325° (NW) 2,174 7.7 -14.7°
Maximum altitude 21:43:41 47° 252° (WSW) 931 4.5 -15.1°
Enters shadow 21:46:51 19° 187° (S) 1,630 5.2 -15.3°
